| time (UTC) | temp C | wind direction | speed KPH | gust KPH | rain 1hr cm | rain 24hr cm | rain mn cm | humidity % | barometer mb |
| 20260505070856 | 6 | 336 | 0.0 | 0.0 | 0.00 | 0.00 | 0.00 | 87 | 1016.8 |
| 20260505065356 | 6 | 356 | 0.0 | 0.0 | 0.00 | 0.00 | 0.00 | 86 | 1016.6 |
| 20260505063855 | 6 | 35 | 0.0 | 0.0 | 0.00 | 0.00 | 0.00 | 85 | 1016.6 |
| 20260505062355 | 6 | 38 | 0.0 | 0.0 | 0.00 | 0.00 | 0.00 | 84 | 1016.5 |
| 20260505060853 | 7 | 11 | 0.0 | 0.0 | 0.00 | 0.00 | 0.00 | 78 | 1016.8 |
| 20260505055354 | 7 | 320 | 0.0 | 0.0 | 0.00 | 0.05 | 0.05 | 81 | 1017.1 |
| 20260505053852 | 7 | 359 | 0.0 | 0.0 | 0.00 | 0.05 | 0.05 | 79 | 1017.0 |
| 20260505052348 | 7 | 338 | 0.0 | 0.0 | 0.00 | 0.05 | 0.05 | 80 | 1016.8 |
| 20260505050847 | 7 | 357 | 0.0 | 0.0 | 0.00 | 0.05 | 0.05 | 78 | 1016.5 |
| 20260505040833 | 8 | 33 | 0.0 | 0.0 | 0.00 | 0.05 | 0.05 | 77 | 1016.0 |
| 20260505035328 | 8 | 14 | 0.0 | 0.0 | 0.00 | 0.05 | 0.05 | 79 | 1016.3 |
| 20260505033825 | 8 | 4 | 9.7 | 12.9 | 0.00 | 0.05 | 0.05 | 74 | 1015.5 |
| 20260505032321 | 8 | 2 | 4.8 | 9.7 | 0.00 | 0.05 | 0.05 | 74 | 1015.5 |
| 20260505030819 | 8 | 7 | 1.6 | 8.0 | 0.00 | 0.05 | 0.05 | 76 | 1015.7 |
| 20260505025314 | 8 | 330 | 1.6 | 4.8 | 0.00 | 0.05 | 0.05 | 78 | 1015.7 |
| 20260505023812 | 8 | 357 | 0.0 | 3.2 | 0.00 | 0.05 | 0.05 | 77 | 1015.2 |
| 20260505022309 | 8 | 354 | 3.2 | 9.7 | 0.00 | 0.05 | 0.05 | 76 | 1015.2 |
| 20260505020804 | 8 | 5 | 8.0 | 9.7 | 0.18 | 0.05 | 0.05 | 74 | 1015.3 |
| 20260505015300 | 8 | 3 | 4.8 | 4.8 | 0.13 | 0.03 | 0.03 | 69 | 1015.4 |
| 20260505013756 | 10 | 356 | 4.8 | 8.0 | 0.00 | 0.00 | 0.00 | 57 | 1015.2 |
| 20260505012255 | 11 | 83 | 3.2 | 9.7 | 0.00 | 0.00 | 0.00 | 55 | 1014.9 |
| 20260505010755 | 13 | 0 | 6.4 | 9.7 | 0.00 | 0.00 | 0.00 | 42 | 1014.2 |
| 20260505005251 | 13 | 328 | 0.0 | 0.0 | 0.00 | 0.00 | 0.00 | 40 | 1013.9 |
| 20260505003748 | 14 | 339 | 0.0 | 1.6 | 0.00 | 0.00 | 0.00 | 39 | 1013.8 |
| 20260505002245 | 14 | 353 | 8.0 | 9.7 | 0.00 | 0.00 | 0.00 | 38 | 1013.1 |
| 20260505000742 | 15 | 7 | 8.0 | 9.7 | 0.00 | 0.00 | 0.00 | 38 | 1013.1 |
| 20260504235238 | 16 | 90 | 0.0 | 0.0 | 0.00 | 0.00 | 0.00 | 34 | 1013.2 |
| 20260504233735 | 16 | 44 | 0.0 | 0.0 | 0.00 | 0.00 | 0.00 | 35 | 1013.5 |
| 20260504232231 | 16 | 344 | 0.0 | 0.0 | 0.00 | 0.00 | 0.00 | 35 | 1013.2 |
| 20260504230726 | 16 | 268 | 0.0 | 0.0 | 0.00 | 0.00 | 0.00 | 36 | 1013.2 |
| 20260504225225 | 16 | 326 | 0.0 | 0.0 | 0.00 | 0.00 | 0.00 | 33 | 1013.3 |
| 20260504223721 | 16 | 127 | 0.0 | 1.6 | 0.00 | 0.00 | 0.00 | 33 | 1013.5 |
| 20260504222217 | 16 | 113 | 0.0 | 0.0 | 0.00 | 0.00 | 0.00 | 33 | 1013.2 |
| 20260504220713 | 15 | 108 | 4.8 | 8.0 | 0.00 | 0.00 | 0.00 | 33 | 1013.6 |
| 20260504215211 | 17 | 210 | 0.0 | 0.0 | 0.00 | 0.00 | 0.00 | 28 | 1013.2 |
| 20260504213712 | 17 | 117 | 6.4 | 8.0 | 0.00 | 0.00 | 0.00 | 25 | 1012.5 |
| 20260504212208 | 18 | 291 | 0.0 | 0.0 | 0.00 | 0.00 | 0.00 | 22 | 1012.6 |
| 20260504210704 | 18 | 332 | 0.0 | 0.0 | 0.00 | 0.00 | 0.00 | 23 | 1012.6 |
| 20260504205201 | 20 | 263 | 0.0 | 0.0 | 0.00 | 0.00 | 0.00 | 21 | 1012.8 |
| 20260504203656 | 20 | 16 | 0.0 | 1.6 | 0.00 | 0.00 | 0.00 | 22 | 1013.1 |
| 20260504202151 | 18 | 281 | 6.4 | 8.0 | 0.00 | 0.00 | 0.00 | 23 | 1013.1 |
| 20260504200649 | 19 | 337 | 0.0 | 0.0 | 0.00 | 0.00 | 0.00 | 22 | 1013.1 |
| 20260504195149 | 21 | 352 | 0.0 | 0.0 | 0.00 | 0.00 | 0.00 | 19 | 1013.2 |
| 20260504193644 | 20 | 229 | 0.0 | 1.6 | 0.00 | 0.00 | 0.00 | 21 | 1013.5 |
| 20260504192144 | 20 | 58 | 0.0 | 0.0 | 0.00 | 0.00 | 0.00 | 20 | 1013.3 |
| 20260504190640 | 20 | 254 | 3.2 | 9.7 | 0.00 | 0.00 | 0.00 | 22 | 1013.9 |
| 20260504185136 | 19 | 237 | 0.0 | 0.0 | 0.00 | 0.00 | 0.00 | 23 | 1014.1 |
| 20260504183636 | 19 | 133 | 0.0 | 0.0 | 0.00 | 0.00 | 0.00 | 22 | 1014.3 |
| 20260504182134 | 19 | 294 | 6.4 | 8.0 | 0.00 | 0.00 | 0.00 | 24 | 1014.4 |
| 20260504180634 | 18 | 294 | 1.6 | 3.2 | 0.00 | 0.00 | 0.00 | 26 | 1014.4 |
| 20260504175131 | 18 | 300 | 0.0 | 0.0 | 0.00 | 0.00 | 0.00 | 23 | 1014.8 |
| 20260504173629 | 18 | 347 | 0.0 | 0.0 | 0.00 | 0.00 | 0.00 | 26 | 1015.0 |
| 20260504172125 | 20 | 291 | 6.4 | 8.0 | 0.00 | 0.00 | 0.00 | 25 | 1015.2 |
| 20260504170620 | 18 | 307 | 8.0 | 8.0 | 0.00 | 0.00 | 0.00 | 27 | 1015.4 |
| 20260504150600 | 15 | 272 | 8.0 | 9.7 | 0.00 | 0.00 | 0.00 | 34 | 1015.9 |
| 20260504140545 | 15 | 288 | 4.8 | 8.0 | 0.00 | 0.00 | 0.00 | 33 | 1015.8 |
| 20260504130533 | 10 | 293 | 0.0 | 0.0 | 0.00 | 0.00 | 0.00 | 43 | 1016.0 |
| 20260504110514 | 7 | 301 | 0.0 | 0.0 | 0.00 | 0.00 | 0.00 | 51 | 1016.0 |
| 20260504100510 | 6 | 279 | 0.0 | 0.0 | 0.00 | 0.00 | 0.00 | 55 | 1016.5 |
| 20260504081944 | 8 | 251 | 0.0 | 0.0 | 0.00 | 0.00 | 0.00 | 52 | 1016.9 |
| 20260504080440 | 8 | 292 | 0.0 | 0.0 | 0.00 | 0.00 | 0.00 | 49 | 1016.9 |